Flag for Sweden Weather past 2 weeks in Gothenburg, Sweden

Now
52 °F

Sunny.


Feels Like: 52 °F
Forecast: 52 / 56 °F
Wind: 1 mph from North

Location: Gothenburg / Save

Current Time: Sep 4, 2015 at 8:24:18 AM

Latest Report: Sep 4, 2015 at 7:50 AM


Visibility: 10 mi

Pressure: 29.86 "Hg

Humidity: 94%

Dew point: 50 °F

Location of GothenburgLocation

Historic Weather in Gothenburg — Graph

°F

Gothenburg temperature yesterday

Maximum temperature yesterday: 63 °F (at 10:50 AM)
Minimum temperature yesterday: 50 °F (at 10:50 PM)
Average temperature yesterday: 58 °F

Past Weeks' High & Low Weather Summary

 TemperatureHumidityPressure
High77 °F (Aug 20, 2:20 PM)100% (Aug 22, 2:50 AM)30.36 "Hg (Aug 22, 2:50 AM)
Low46 °F (Aug 22, 4:20 AM)36% (Aug 23, 2:50 PM)29.59 "Hg (Aug 27, 12:20 PM)
Average61 °F78%29.94 "Hg
* Reported Aug 20 7:20 AM — Sep 4 7:20 AM, Gothenburg, Weather by CustomWeather, © 2015

Note: Actual official high and low records may vary slightly from our data, if they occured in-between our weather recording intervals... More about our weather records

Advertising

Gothenburg weather history for previous 24 hours

 ConditionsComfort  
Time TempWeatherWind HumidityBarometerVisibility
7:20 AM
Fri, Sep 4
52 °FSunny.2 mph88%29.86 "Hg10 mi
6:20 AM52 °FClear.3 mph94%29.86 "Hg10 mi
5:50 AM52 °FClear.3 mph88%29.86 "Hg10 mi
5:20 AM50 °FClear.2 mph94%29.86 "Hg10 mi
4:20 AM52 °FClear.5 mph94%29.89 "Hg10 mi
3:50 AM52 °FClear.No wind88%29.89 "Hg10 mi
3:20 AM52 °FPassing clouds.6 mph88%29.89 "HgN/A
2:50 AM52 °FClear.5 mph94%29.89 "Hg10 mi
1:20 AM52 °FClear.3 mph94%29.89 "Hg10 mi
12:50 AM52 °FClear.5 mph94%29.89 "Hg10 mi
12:20 AM52 °FClear.2 mph94%29.89 "Hg10 mi
11:20 PM
Thu, Sep 3
52 °FClear.2 mph94%29.89 "Hg10 mi
10:50 PM50 °FClear.3 mph94%29.89 "Hg10 mi
10:20 PM54 °FClear.No wind88%29.89 "Hg10 mi
9:50 PM55 °FPassing clouds.3 mph88%29.89 "HgN/A
9:20 PM55 °FPassing clouds.3 mph82%29.89 "HgN/A
8:50 PM57 °FScattered clouds.2 mph77%29.89 "HgN/A
8:20 PM57 °FScattered clouds.1 mph77%29.89 "HgN/A
7:50 PM59 °FScattered clouds.5 mph72%29.89 "HgN/A
7:20 PM59 °FScattered clouds.10 mph72%29.86 "HgN/A
6:50 PM61 °FScattered clouds.12 mph68%29.86 "HgN/A
6:20 PM61 °FScattered clouds.15 mph72%29.86 "HgN/A
5:50 PM61 °FScattered clouds.13 mph68%29.86 "HgN/A
5:20 PM63 °FScattered clouds.15 mph64%29.86 "HgN/A
4:50 PM63 °FScattered clouds.16 mph68%29.86 "HgN/A
4:20 PM63 °FScattered clouds.15 mph68%29.86 "HgN/A
3:50 PM63 °FScattered clouds.13 mph68%29.86 "HgN/A
3:20 PM63 °FScattered clouds.12 mph64%29.86 "HgN/A
2:50 PM63 °FScattered clouds.14 mph68%29.86 "HgN/A
2:20 PM63 °FScattered clouds.15 mph68%29.86 "HgN/A
1:50 PM63 °FScattered clouds.13 mph64%29.86 "HgN/A
1:20 PM61 °FBroken clouds.7 mph77%29.86 "HgN/A
12:50 PM59 °FRain showers. Mostly cloudy.6 mph82%29.86 "HgN/A
12:20 PM59 °FScattered clouds.6 mph77%29.86 "HgN/A
11:50 AM57 °FLight rain. Partly sunny.7 mph82%29.89 "HgN/A
11:20 AM61 °FBroken clouds.9 mph68%29.86 "HgN/A
10:50 AM63 °FBroken clouds.9 mph64%29.86 "HgN/A
10:20 AM59 °FScattered clouds.10 mph77%29.86 "HgN/A
9:50 AM59 °FScattered clouds.13 mph77%29.86 "HgN/A
9:20 AM59 °FScattered clouds.9 mph77%29.86 "HgN/A
8:50 AM59 °FScattered clouds.8 mph77%29.83 "HgN/A
8:20 AM59 °FScattered clouds.7 mph77%29.83 "HgN/A
Weather by CustomWeather, © 2015

See weather overviewHow to use our weather pages